Terminal Aerodrome Forecast
Issued by NWS

Home | Current Version | Previous Version | Text Only | Print | Product List | Glossary On
Versions: 1 2 3 4 5 6 7 8 9 10 11 12 13 14 15 16 17 18 19 20 21
000
FTUS43 KGRR 240500
TAFBTL
TAF
KBTL 240531Z 2406/2506 20003KT P6SM BKN250
     FM241115 22004KT P6SM SCT025 BKN040
     FM250300 21006KT P6SM SCT040=

USA.gov is the U.S. government's official web portal to all federal, state and local government web resources and services.